FW1304 Weather Reports


Display with metric or nautical units.
time (UTC)temp
F
wind
direction
speed
MPH
gust
MPH
rain 1hr
in
rain 24hr
in
rain mn
in
humidity
%
barometer
mb
20260904052341 76 62 0.0 0.0 0.00 0.00 0.00 84 1007.1
20260904051844 76 110 0.0 0.0 0.00 0.00 0.00 84 1007.0
20260904051403 76 157 0.0 0.0 0.00 0.00 0.00 84 1007.0
20260904050816 76 67 0.0 0.0 0.00 0.00 0.00 84 1006.8
20260904050320 76 144 0.0 0.0 0.00 0.00 0.00 83 1006.9
20260904045828 77 49 0.0 0.0 0.00 0.00 0.00 83 1006.9
20260904045330 77 80 0.0 0.0 0.00 0.00 0.00 83 1006.8
20260904044819 77 117 0.0 0.0 0.00 0.00 0.00 83 1006.7
20260904044333 77 115 0.0 0.0 0.00 0.00 0.00 82 1006.7
20260904043847 77 120 0.0 0.0 0.00 0.00 0.00 82 1006.8
20260904043343 77 129 0.0 0.0 0.00 0.00 0.00 81 1006.8
20260904042831 77 112 0.0 0.0 0.00 0.00 0.00 81 1006.8
20260904042316 78 71 0.0 0.0 0.00 0.00 0.00 80 1006.8
20260904041818 78 66 0.0 0.0 0.00 0.00 0.00 80 1006.7
20260904041329 78 101 0.0 0.0 0.00 0.00 0.00 80 1006.7
20260904040832 78 104 0.0 0.0 0.00 0.00 0.00 79 1006.8
20260904040336 78 88 0.0 0.0 0.00 0.00 0.00 79 1006.8
20260904035820 79 120 0.0 0.0 0.00 0.00 0.00 79 1006.7
20260904035319 79 95 0.0 0.0 0.00 0.00 0.00 78 1006.8
20260904034831 79 92 0.0 0.0 0.00 0.00 0.00 78 1006.8
20260904034334 79 141 0.0 0.0 0.00 0.00 0.00 78 1006.6
20260904033838 80 121 0.0 0.0 0.00 0.00 0.00 78 1006.6
20260904033342 80 117 0.0 0.0 0.00 0.00 0.00 77 1006.7
20260904032823 80 131 0.0 0.0 0.00 0.00 0.00 77 1006.7
20260904032335 80 143 0.0 0.0 0.00 0.00 0.00 77 1006.8
20260904031819 80 144 0.0 0.0 0.00 0.00 0.00 76 1006.8
20260904031332 80 154 0.0 0.0 0.00 0.00 0.00 76 1006.7
20260904030831 81 155 0.0 0.0 0.00 0.00 0.00 76 1006.7
20260904030344 81 155 0.0 0.0 0.00 0.00 0.00 76 1006.6
20260904025830 81 155 0.0 0.0 0.00 0.00 0.00 75 1006.6
20260904025335 81 148 0.0 0.0 0.00 0.00 0.00 75 1006.5
20260904024835 81 198 0.0 0.0 0.00 0.00 0.00 75 1006.5
20260904024319 81 133 0.0 0.0 0.00 0.00 0.00 75 1006.5
20260904023830 81 173 0.0 0.0 0.00 0.00 0.00 74 1006.6
20260904023334 81 179 0.0 0.0 0.00 0.00 0.00 74 1006.4
20260904022817 81 126 0.0 0.0 0.00 0.00 0.00 74 1006.4
20260904022331 81 187 0.0 0.0 0.00 0.00 0.00 74 1006.4
20260904021816 82 159 0.0 0.0 0.00 0.00 0.00 73 1006.4
20260904021338 82 159 0.0 0.0 0.00 0.00 0.00 73 1006.3
20260904020829 82 159 0.0 0.0 0.00 0.00 0.00 72 1006.4
20260904020330 82 134 0.0 0.0 0.00 0.00 0.00 72 1006.3
20260904015836 82 147 0.0 0.0 0.00 0.00 0.00 72 1006.4
20260904015340 82 147 0.0 0.0 0.00 0.00 0.00 72 1006.3
20260904014844 82 140 0.0 0.0 0.00 0.00 0.00 71 1006.3
20260904014331 82 141 0.0 0.0 0.00 0.00 0.00 71 1006.3
20260904013832 82 121 0.0 0.0 0.00 0.00 0.00 71 1006.3
20260904013335 83 157 0.0 0.0 0.00 0.00 0.00 70 1006.2
20260904012851 83 174 0.0 0.0 0.00 0.00 0.00 70 1006.2
20260904012326 83 174 0.0 0.0 0.00 0.00 0.00 70 1006.1
20260904011830 83 172 0.0 0.0 0.00 0.00 0.00 69 1006.1
20260904011344 83 204 0.0 0.0 0.00 0.00 0.00 69 1006.2
20260904010829 83 215 0.0 0.0 0.00 0.00 0.00 68 1006.1
20260904010329 84 230 0.0 0.0 0.00 0.00 0.00 68 1006.0
20260904005904 84 232 0.0 0.0 0.00 0.00 0.00 68 1006.0
20260904005324 84 177 0.0 0.0 0.00 0.00 0.00 67 1006.0
20260904004838 84 161 0.0 0.0 0.00 0.00 0.00 67 1006.0
20260904004319 84 222 0.0 0.0 0.00 0.00 0.00 67 1006.0
20260904003851 84 135 0.0 0.0 0.00 0.00 0.00 66 1006.0
20260904003344 85 86 0.0 0.0 0.00 0.00 0.00 66 1006.0
20260904002839 85 136 0.0 0.0 0.00 0.00 0.00 66 1006.0
20260904002338 85 171 0.0 0.0 0.00 0.00 0.00 65 1005.9
20260904001842 85 190 0.0 0.0 0.00 0.00 0.00 65 1006.0
20260904001334 85 214 0.0 0.0 0.00 0.00 0.00 65 1006.1
20260904000838 85 199 0.0 0.0 0.00 0.00 0.00 65 1006.0
20260904000340 85 159 0.0 0.0 0.00 0.00 0.00 64 1006.0
20260903235833 85 203 0.0 0.0 0.00 0.00 0.00 64 1006.0
20260903235336 85 174 0.0 0.0 0.00 0.00 0.00 64 1006.1
20260903234839 85 167 0.0 0.0 0.00 0.00 0.00 64 1006.1
20260903234322 85 212 0.0 0.0 0.00 0.00 0.00 63 1006.1
20260903233853 86 205 0.0 0.0 0.00 0.00 0.00 63 1006.1
20260903233317 86 202 0.0 2.0 0.00 0.00 0.00 63 1006.0
20260903232834 86 204 0.0 2.0 0.00 0.00 0.00 63 1006.0
20260903232317 86 168 0.0 1.0 0.00 0.00 0.00 63 1005.8
20260903231843 86 174 0.0 1.0 0.00 0.00 0.00 62 1005.8
20260903231336 86 186 0.0 0.0 0.00 0.00 0.00 62 1005.6
20260903230839 86 215 0.0 0.0 0.00 0.00 0.00 63 1005.5
20260903230342 86 209 0.0 1.0 0.00 0.00 0.00 62 1005.5
20260903225834 86 153 0.0 1.0 0.00 0.00 0.00 62 1005.5
20260903225317 86 194 0.0 1.0 0.00 0.00 0.00 62 1005.3
20260903224820 86 155 0.0 1.0 0.00 0.00 0.00 62 1005.5
20260903224345 86 139 0.0 2.0 0.00 0.00 0.00 62 1005.2
20260903223844 86 204 0.0 2.0 0.00 0.00 0.00 62 1005.3
20260903223317 86 154 0.0 1.0 0.00 0.00 0.00 63 1005.4
20260903222822 86 215 0.0 1.0 0.00 0.00 0.00 63 1005.4
20260903222325 86 236 0.0 1.0 0.00 0.00 0.00 63 1005.4
20260903221838 86 223 0.0 1.0 0.00 0.00 0.00 63 1005.5
20260903221322 86 214 0.0 0.0 0.00 0.00 0.00 63 1005.6
20260903220824 86 177 0.0 1.0 0.00 0.00 0.00 63 1005.5
20260903220357 86 186 0.0 1.0 0.00 0.00 0.00 63 1005.7
20260903215824 86 220 0.0 1.0 0.00 0.00 0.00 63 1005.7
20260903215352 86 196 0.0 0.0 0.00 0.00 0.00 64 1005.8
20260903214833 86 207 0.0 0.0 0.00 0.00 0.00 65 1005.8
20260903214320 86 230 0.0 0.0 0.00 0.00 0.00 67 1005.8
20260903213849 85 220 0.0 0.0 0.00 0.00 0.00 67 1005.8
20260903213331 85 214 0.0 2.0 0.00 0.00 0.00 67 1005.7
20260903212825 85 196 0.0 2.0 0.00 0.00 0.00 66 1005.7
20260903212338 85 138 0.0 1.0 0.00 0.00 0.00 66 1005.6
20260903211841 86 190 0.0 1.0 0.00 0.00 0.00 67 1005.7
20260903211321 85 182 0.0 1.0 0.00 0.00 0.00 67 1005.6
20260903210825 85 202 0.0 2.0 0.00 0.00 0.00 66 1005.6
20260903210328 85 148 0.0 2.0 0.00 0.00 0.00 65 1005.6
20260903205817 86 180 0.0 5.0 0.00 0.00 0.00 64 1005.7
20260903205318 86 171 0.0 2.0 0.00 0.00 0.00 64 1005.7
20260903204819 86 239 0.0 2.0 0.00 0.00 0.00 65 1005.6
20260903204341 85 131 0.0 1.0 0.00 0.00 0.00 65 1005.5
20260903203845 85 230 0.0 1.0 0.00 0.00 0.00 65 1005.7
20260903203351 85 172 0.0 7.0 0.00 0.00 0.00 64 1005.8
20260903202844 86 229 0.0 7.0 0.00 0.00 0.00 63 1005.8
20260903202318 86 257 0.0 2.0 0.00 0.00 0.00 62 1005.8
20260903201822 86 142 0.0 4.0 0.00 0.00 0.00 62 1005.8
20260903201331 86 167 0.0 2.0 0.00 0.00 0.00 63 1005.9
20260903200901 86 169 0.0 4.0 0.00 0.00 0.00 61 1005.9
20260903200343 87 91 0.0 4.0 0.00 0.00 0.00 61 1006.1
20260903195817 87 199 0.0 2.0 0.00 0.00 0.00 61 1006.2
20260903195343 87 189 0.0 2.0 0.00 0.00 0.00 60 1006.3
20260903194847 87 190 0.0 4.0 0.00 0.00 0.00 60 1006.4
20260903194329 86 188 0.0 4.0 0.00 0.00 0.00 60 1006.5
20260903193833 86 156 0.0 4.0 0.00 0.00 0.00 60 1006.5
20260903193332 86 220 0.0 4.0 0.00 0.00 0.00 60 1006.4
20260903192835 86 214 0.0 2.0 0.00 0.00 0.00 61 1006.5
20260903192338 86 190 0.0 2.0 0.00 0.00 0.00 61 1006.5
20260903191842 86 207 0.0 1.0 0.00 0.00 0.00 61 1006.6
20260903191338 86 195 0.0 1.0 0.00 0.00 0.00 61 1006.5
20260903190839 86 193 0.0 0.0 0.00 0.00 0.00 61 1006.5
20260903190322 86 211 0.0 1.0 0.00 0.00 0.00 60 1006.6
20260903185836 86 129 0.0 2.0 0.00 0.00 0.00 60 1006.4
20260903185335 86 204 0.0 2.0 0.00 0.00 0.00 59 1006.7
20260903184838 87 207 0.0 2.0 0.00 0.00 0.00 59 1006.8
20260903184329 87 220 0.0 2.0 0.00 0.00 0.00 59 1007.0
20260903183833 87 166 0.0 2.0 0.00 0.00 0.00 59 1007.0
20260903183332 86 158 0.0 2.0 0.00 0.00 0.00 60 1006.9
20260903182835 87 146 0.0 4.0 0.00 0.00 0.00 58 1006.9
20260903182339 87 244 0.0 2.0 0.00 0.00 0.00 58 1006.9
20260903181843 87 207 0.0 2.0 0.00 0.00 0.00 57 1006.9
20260903181326 87 202 0.0 2.0 0.00 0.00 0.00 57 1007.0
20260903180829 86 198 0.0 2.0 0.00 0.00 0.00 57 1007.0
20260903180332 86 200 0.0 2.0 0.00 0.00 0.00 57 1007.0
20260903175819 86 180 0.0 5.0 0.00 0.00 0.00 58 1007.2
20260903175318 86 227 0.0 4.0 0.00 0.00 0.00 57 1007.3
20260903174821 86 194 0.0 2.0 0.00 0.00 0.00 57 1007.3
20260903174324 86 199 0.0 4.0 0.00 0.00 0.00 56 1007.3
20260903173856 87 175 0.0 5.0 0.00 0.00 0.00 55 1007.3
20260903173335 87 109 0.0 5.0 0.00 0.00 0.00 55 1007.4
20260903172850 87 211 0.0 2.0 0.00 0.00 0.00 58 1007.4
20260903172328 87 220 0.0 2.0 0.00 0.00 0.00 60 1007.4
20260903171831 86 181 0.0 0.0 0.00 0.00 0.00 60 1007.3
20260903171339 86 140 0.0 1.0 0.00 0.00 0.00 59 1007.4
20260903170841 86 126 0.0 2.0 0.00 0.00 0.00 60 1007.5
20260903170344 85 195 0.0 2.0 0.00 0.00 0.00 60 1007.6
20260903165830 85 205 0.0 0.0 0.00 0.00 0.00 61 1007.6
20260903165329 85 187 0.0 1.0 0.00 0.00 0.00 61 1007.7
20260903164832 84 178 0.0 1.0 0.00 0.00 0.00 62 1007.8
20260903164335 84 157 0.0 0.0 0.00 0.00 0.00 62 1007.7
20260903163838 84 111 0.0 1.0 0.00 0.00 0.00 62 1007.8
20260903163320 84 160 0.0 1.0 0.00 0.00 0.00 63 1007.9
20260903162831 84 197 0.0 1.0 0.00 0.00 0.00 65 1007.9
20260903162335 83 205 0.0 1.0 0.00 0.00 0.00 66 1007.9
20260903161838 83 114 0.0 0.0 0.00 0.00 0.00 66 1007.9
20260903161327 83 200 0.0 0.0 0.00 0.00 0.00 67 1008.0
20260903160829 83 136 0.0 0.0 0.00 0.00 0.00 68 1008.0
20260903160333 83 144 0.0 0.0 0.00 0.00 0.00 70 1008.0
20260903155820 82 121 0.0 0.0 0.00 0.00 0.00 70 1008.0
20260903155335 82 144 0.0 0.0 0.00 0.00 0.00 71 1007.9
20260903154834 82 122 0.0 0.0 0.00 0.00 0.00 72 1007.8
20260903154319 81 151 0.0 0.0 0.00 0.00 0.00 73 1007.9
20260903153851 81 116 0.0 0.0 0.00 0.00 0.00 74 1007.8
20260903153332 81 111 0.0 0.0 0.00 0.00 0.00 74 1008.0
20260903152842 80 134 0.0 0.0 0.00 0.00 0.00 75 1008.0
20260903152328 80 167 0.0 0.0 0.00 0.00 0.00 75 1007.9
20260903151842 80 149 0.0 0.0 0.00 0.00 0.00 75 1008.0
20260903151338 80 214 0.0 0.0 0.00 0.00 0.00 75 1008.0
20260903150817 79 90 0.0 0.0 0.00 0.00 0.00 76 1007.9
20260903150320 79 126 0.0 0.0 0.00 0.00 0.00 76 1007.9
20260903145835 79 107 0.0 0.0 0.00 0.00 0.00 76 1008.0
20260903145320 79 94 0.0 0.0 0.00 0.00 0.00 76 1007.9
20260903144845 79 120 0.0 0.0 0.00 0.00 0.00 78 1007.9
20260903144328 78 145 0.0 0.0 0.00 0.00 0.00 79 1008.1
20260903143840 78 132 0.0 0.0 0.00 0.00 0.00 80 1008.1
20260903143343 77 133 0.0 0.0 0.00 0.00 0.00 81 1008.0
20260903142832 76 133 0.0 0.0 0.00 0.00 0.00 82 1008.0
20260903142340 76 118 0.0 0.0 0.00 0.00 0.00 83 1008.1
20260903141844 75 140 0.0 0.0 0.00 0.00 0.00 83 1008.1
20260903141338 75 135 0.0 0.0 0.00 0.00 0.00 84 1008.2
20260903140835 74 184 0.0 0.0 0.00 0.00 0.00 85 1008.3
20260903140339 74 140 0.0 0.0 0.00 0.00 0.00 84 1008.3
20260903135822 73 148 0.0 0.0 0.00 0.00 0.00 85 1008.3
20260903135356 73 108 0.0 0.0 0.00 0.00 0.00 85 1008.5
20260903134832 73 120 0.0 0.0 0.00 0.00 0.00 85 1008.5
20260903134345 73 124 0.0 1.0 0.00 0.00 0.00 86 1008.5
20260903133835 72 144 0.0 0.0 0.00 0.00 0.00 86 1008.5
20260903133336 72 123 0.0 0.0 0.00 0.00 0.00 86 1008.5
20260903132823 72 108 0.0 0.0 0.00 0.00 0.00 86 1008.4
20260903132357 72 103 0.0 0.0 0.00 0.00 0.00 86 1008.4
20260903131820 71 79 0.0 0.0 0.00 0.00 0.00 86 1008.3
20260903131329 71 67 0.0 2.0 0.00 0.00 0.00 86 1008.4
20260903130833 71 84 0.0 2.0 0.00 0.00 0.00 86 1008.3
20260903130317 71 99 0.0 0.0 0.00 0.00 0.00 87 1008.3
20260903125841 71 143 0.0 0.0 0.00 0.00 0.00 87 1008.2
20260903125343 71 11 0.0 0.0 0.00 0.00 0.00 87 1008.3
20260903124843 71 47 0.0 0.0 0.00 0.00 0.00 87 1008.4
20260903124326 71 102 0.0 0.0 0.00 0.00 0.00 87 1008.4
20260903123829 70 118 0.0 0.0 0.00 0.00 0.00 87 1008.4
20260903123343 70 96 0.0 0.0 0.00 0.00 0.00 87 1008.2
20260903122834 70 113 0.0 0.0 0.00 0.00 0.00 87 1008.5
20260903122338 70 69 0.0 0.0 0.00 0.00 0.00 87 1008.4
20260903121842 70 23 0.0 0.0 0.00 0.00 0.00 87 1008.4
20260903121338 70 101 0.0 0.0 0.00 0.00 0.00 87 1008.4
20260903120844 70 105 0.0 0.0 0.00 0.00 0.00 87 1008.3
20260903120318 70 126 0.0 1.0 0.00 0.00 0.00 87 1008.3
20260903115842 70 121 0.0 1.0 0.00 0.00 0.00 87 1008.3
20260903115344 70 91 0.0 0.0 0.00 0.00 0.00 87 1008.2
20260903114817 70 114 0.0 0.0 0.00 0.00 0.00 87 1008.3
20260903114338 70 103 0.0 0.0 0.00 0.00 0.00 87 1008.4
20260903113839 70 107 0.0 0.0 0.00 0.00 0.00 87 1008.4
20260903113342 69 121 0.0 0.0 0.00 0.00 0.00 87 1008.4
20260903112852 69 103 0.0 0.0 0.00 0.00 0.00 87 1008.3
20260903112335 69 97 0.0 0.0 0.00 0.00 0.00 87 1008.2
20260903111838 69 108 0.0 0.0 0.00 0.00 0.00 87 1008.2
20260903111322 69 109 0.0 0.0 0.00 0.00 0.00 86 1008.4
20260903110825 69 117 0.0 0.0 0.00 0.00 0.00 86 1008.3
20260903110353 69 123 0.0 0.0 0.00 0.00 0.00 86 1008.4
20260903105827 69 139 0.0 0.0 0.00 0.00 0.00 86 1008.5
20260903105339 69 113 0.0 0.0 0.00 0.00 0.00 86 1008.4
20260903104842 69 103 0.0 0.0 0.00 0.00 0.00 86 1008.4
20260903104331 69 111 0.0 0.0 0.00 0.00 0.00 86 1008.4
20260903103843 69 99 0.0 0.0 0.00 0.00 0.00 86 1008.3
20260903103327 69 107 0.0 0.0 0.00 0.00 0.00 86 1008.3
20260903102816 69 113 0.0 0.0 0.00 0.00 0.00 86 1008.4
20260903102345 69 121 0.0 0.0 0.00 0.00 0.00 86 1008.3
20260903101818 69 108 0.0 0.0 0.00 0.00 0.00 86 1008.3
20260903101333 70 115 0.0 0.0 0.00 0.00 0.00 85 1008.3
20260903100837 70 68 0.0 0.0 0.00 0.00 0.00 85 1008.1
20260903100337 70 93 0.0 0.0 0.00 0.00 0.00 85 1008.1
20260903095822 70 128 0.0 0.0 0.00 0.00 0.00 85 1008.1
20260903095325 70 119 0.0 0.0 0.00 0.00 0.00 85 1007.9
20260903094818 70 127 0.0 0.0 0.00 0.00 0.00 84 1008.0
20260903094329 70 108 0.0 0.0 0.00 0.00 0.00 84 1008.0
20260903093859 70 112 0.0 0.0 0.00 0.00 0.00 85 1008.0
20260903093341 70 137 0.0 0.0 0.00 0.00 0.00 84 1008.0
20260903092835 70 125 0.0 0.0 0.00 0.00 0.00 84 1008.0
20260903092318 70 104 0.0 0.0 0.00 0.00 0.00 84 1007.9
20260903091825 70 129 0.0 0.0 0.00 0.00 0.00 84 1008.0
20260903091355 70 140 0.0 0.0 0.00 0.00 0.00 84 1008.2
20260903090837 70 123 0.0 0.0 0.00 0.00 0.00 84 1008.0
20260903090335 70 120 0.0 0.0 0.00 0.00 0.00 83 1007.9
20260903085849 70 82 0.0 0.0 0.00 0.00 0.00 83 1007.9
20260903085401 70 101 0.0 0.0 0.00 0.00 0.00 83 1007.9
20260903084842 70 119 0.0 0.0 0.00 0.00 0.00 83 1008.0
20260903084332 70 105 0.0 0.0 0.00 0.00 0.00 83 1008.1
20260903083835 70 89 0.0 0.0 0.00 0.00 0.00 83 1008.3
20260903083320 70 54 0.0 0.0 0.00 0.00 0.00 82 1008.4
20260903082842 70 95 0.0 0.0 0.00 0.00 0.00 82 1008.3
20260903082344 70 119 0.0 0.0 0.00 0.00 0.00 82 1008.3
20260903081817 70 123 0.0 0.0 0.00 0.00 0.00 82 1008.2
20260903081359 71 110 0.0 0.0 0.00 0.00 0.00 82 1008.3
20260903080841 71 82 0.0 0.0 0.00 0.00 0.00 82 1008.4
20260903080340 71 92 0.0 0.0 0.00 0.00 0.00 81 1008.5
20260903075834 71 112 0.0 0.0 0.00 0.00 0.00 81 1008.5
20260903075336 71 113 0.0 0.0 0.00 0.00 0.00 81 1008.5
20260903074820 71 113 0.0 0.0 0.00 0.00 0.00 81 1008.5
20260903074332 71 115 0.0 0.0 0.00 0.00 0.00 81 1008.6
20260903073836 71 119 0.0 0.0 0.00 0.00 0.00 80 1008.5
20260903073339 71 121 0.0 0.0 0.00 0.00 0.00 80 1008.5
20260903072825 72 123 0.0 0.0 0.00 0.00 0.00 80 1008.5
20260903072352 72 113 0.0 0.0 0.00 0.00 0.00 80 1008.6
20260903071845 72 113 0.0 0.0 0.00 0.00 0.00 79 1008.6
20260903071327 72 121 0.0 0.0 0.00 0.00 0.00 79 1008.6
20260903070830 72 123 0.0 0.0 0.00 0.00 0.00 79 1008.6
20260903070343 72 127 0.0 0.0 0.00 0.00 0.00 79 1008.7
20260903065857 72 121 0.0 0.0 0.00 0.00 0.00 79 1008.7
20260903065339 72 130 0.0 0.0 0.00 0.00 0.00 79 1008.7
20260903064843 72 101 0.0 0.0 0.00 0.00 0.00 78 1008.8
20260903064329 72 123 0.0 0.0 0.00 0.00 0.00 78 1008.8
20260903063858 73 113 0.0 0.0 0.00 0.00 0.00 78 1008.7
20260903063340 73 112 0.0 0.0 0.00 0.00 0.00 77 1008.8
20260903062836 73 109 0.0 0.0 0.00 0.00 0.00 77 1008.7
20260903062340 73 118 0.0 0.0 0.00 0.00 0.00 77 1008.7
20260903061839 73 101 0.0 0.0 0.00 0.00 0.00 77 1008.8
20260903061323 73 105 0.0 0.0 0.00 0.00 0.00 76 1008.9
20260903060855 73 105 0.0 0.0 0.00 0.00 0.00 76 1009.0
20260903060317 73 113 0.0 0.0 0.00 0.00 0.00 76 1009.0
20260903055858 74 103 0.0 0.0 0.00 0.00 0.00 76 1009.0
20260903055341 74 107 0.0 0.0 0.00 0.00 0.00 76 1009.1
20260903054844 74 94 0.0 0.0 0.00 0.00 0.00 75 1009.1
20260903054332 74 89 0.0 0.0 0.00 0.00 0.00 75 1009.1
20260903053900 74 67 0.0 0.0 0.00 0.00 0.00 75 1009.0
20260903053342 74 90 0.0 0.0 0.00 0.00 0.00 74 1009.1
20260903052836 74 100 0.0 0.0 0.00 0.00 0.00 74 1009.0